Volver al catálogo

SL-6 R/B(2)

ActivoHEO
NORAD 10155·ROCKET BODY·🇷🇺 Russia

Lanzado Jun 24, 1977 desde Baikonur Cosmodrome

Loading…

Próximos Pases (próximas 24 horas)

TLE

ActualizadoSource: Space-Track

Época: Sep 14, 2026, 04:18 UTC

1 10155U 77054D   26257.17943180  .00000130  00000-0  00000-0 0  9994
2 10155  64.1881 192.9492 6507859 276.2205  18.5665  2.48958989120974

Sigue SL-6 R/B(2) en tiempo real con AllMySat

Download on the App Store